OPS 0856 DEB, 24647

Orbit data source: Space-Track

OPS 0856 DEB, 24647 is space debris in LEO originally from a launch on Fri, 19 Aug 1966 UTC launched from the Air Force Western Test Range (AFWTR). Debris objects in space refer to the collection of defunct objects orbiting the Earth. Examples of debris include non-operational satellites, rocket bodies, and fragments generated from explosions, collisions, or faulty payload assembly.

Loading next visibility...
Identifier
24647, 1966-077P
Orbit
LEO
Country
Flag of USUS
Related business
Manufacturer
Unknown
Mission
Spacecraft
Bus & Motor
Unknown
Mass
Unknown
Launch date (UTC)
1966-08-19 (60 years ago)
Launch vehicle
Unknown
Launch site
Air Force Western Test Range (AFWTR)
Object type
Payload
Rocket body
Debris
Shape & HBR
Unknown shape, 0.1 m
Radar Cross Section
Medium (>0.1 m² and <1 m²)

Expand to show TLE details & history
Last TLE update: 1 week ago

TLE from 1 week ago
0 OPS 0856 DEB
1 24647U 66077P   26186.62636874  .00004763  00000-0  33844-1 0  9997
2 24647  87.5468  52.0669 2255947 356.1600  19.0316  9.44438929570426
Epoch: 2026-07-05T15:01Z
TLE epoch observation values (Epoch: 2026-07-05T15:01:58.259Z)
Latitude
26.56211°
Longitude
-95.82804°
Altitude
1,135.777 km
Speed
8.001 km/s
True Right ascension
03h 33m 09s
True Declination
26° 25' 54"
Sunlit
Object was in daylight at epoch
Visualization orbit readout
Latitude
Unknown
Longitude
Unknown
Altitude
Unknown
Speed
Unknown
Apparent Right ascension
Unknown
Apparent Declination
Unknown
Sunlit
N/A
Visualization observer readout
Local Sidereal Time
00:00:06
Azimuth
Unknown
Elevation
Unknown
Doppler factor
Unknown
Orbital elements
Apogee altitude
5,205.67 km
Perigee altitude
941.217 km
Semi-major axis
9,451.581 km
Eccentricity
0.22559
Inclination
87.5468°
RAAN
52.0669°
Arg. of periapsis
356.16°
True anomaly
30.38769°
Mean anomaly
19.0316°
Eccentric anomaly
24.36379°
Mean motion
2.36204 °/min
Orbital period
152.41 mins
BSTAR
0.033844
Loading maneuver chart data...
Computing Atmospheric mass density...
Loading historical data...
Loading historical data...
Loading historical data...
Loading historical data...
Loading historical data...
Loading historical data...
Loading historical data...

Documentation

Showing up to 5 results
|